Vertical_Velocity
-0 0 0 -0 -0 -1 -1 -0 0 -1 1 0 1 -2 -1 -1 -1 -3 -2 18 -2 -1 1 2 -1 2 -3 3 2 -2 -4 3 -4 -22 -11 2 3 14 12 5 1 0 1 4 -5
-1 -1 -0 0 -0 -1 -0 -2 -2 0 -0 0 -1 0 -1 -1 -2 -0 5 -1 -2 -4 -1 0 3 0 -2 4 -6 -2 3 -6 5 9 -0 -31 2 4 5 2 4 0 -5 1 -4
-1 -1 -1 -1 -1 -1 -0 0 -1 -2 -1 -1 -1 -0 0 -1 -4 2 1 -3 -2 -2 1 3 3 2 1 1 -7 -1 -11 -5 -5 11 11 13 -2 -13 -4 -6 3 -1 -4 -4 -4
0 0 -0 -1 -1 -1 -1 -1 -1 -1 -2 -1 -1 -2 -0 2 -3 0 -1 2 -1 2 -2 3 -1 -6 -2 -15 -1 -11 -4 -8 -14 -8 17 7 8 5 -10 -4 -3 4 5 -1 -5
0 0 -0 -0 -0 -0 -0 -1 -1 -1 -3 -2 -1 -1 -1 -1 16 -1 -1 0 -0 1 -0 -3 -4 2 -11 -3 -2 -6 -2 -4 17 1 -1 6 5 18 6 -0 -3 0 2 -2 -1
-2 -1 -1 -2 -1 -1 -2 -1 -1 -1 -1 -1 -3 -5 -1 0 5 -2 1 -0 1 2 1 -5 -8 6 5 -1 -9 4 -1 17 8 17 -2 1 -1 4 6 -11 -8 -4 0 0 -1
-2 -3 -2 -0 -2 -1 -2 -3 -2 -2 -2 -0 -2 -5 -6 23 2 0 5 -1 -1 4 1 1 6 -4 12 10 12 -2 -6 4 8 7 -8 -4 5 -10 10 2 1 8 1 -3 -2
0 -1 -3 -2 -1 -2 -2 -1 -2 -2 -1 -2 -2 -4 -7 11 -2 4 5 4 1 1 5 10 9 7 -0 3 -2 4 14 6 -10 8 26 -7 5 -9 8 8 -3 1 -1 -0 -1
-3 -3 -2 -3 -4 -4 -4 -1 -4 -3 -1 -3 -2 -4 2 3 4 -3 1 7 10 5 7 11 9 -2 15 -2 6 5 -8 -0 -3 -13 18 8 14 1 -8 -4 -1 -1 -2 -8 -5
-3 -4 -3 -3 -3 -7 -8 -6 -1 -3 2 1 -2 -7 -1 11 8 5 -3 10 4 8 6 -1 3 -4 4 6 -22 -1 -2 -3 -10 -13 37 -5 -12 -16 -3 -1 -4 9 8 -12 -7
-2 -5 2 -8 -5 -9 -2 -1 3 -5 11 -4 6 1 9 6 1 9 6 9 6 8 -8 8 -5 -32 -16 2 -6 2 -2 -1 -18 1 21 10 29 -13 -15 1 5 -2 0 4 -19
-3 -3 -6 -2 -2 -5 -5 -8 -4 -3 -26 -2 1 -2 2 3 -0 7 1 5 1 -8 10 13 -26 4 10 6 -1 0 0 -8 -13 -3 21 27 21 -16 -11 -11 -7 3 -11 -5 6
-4 -4 -11 3 -2 -2 -4 -7 -6 -3 -5 4 1 -3 -13 3 1 20 13 10 14 4 1 -4 -6 9 4 4 5 -3 -5 -10 -10 10 14 7 23 11 2 43 23 -0 2 3 3
-4 -5 -6 8 -7 -0 -3 0 -1 -6 -6 12 4 -6 -5 -7 -3 11 10 2 7 3 8 -6 12 7 0 -3 6 -1 -5 -2 -2 21 -13 21 -1 6 -7 -4 -12 4 -16 -7 1
-4 -8 0 -11 -5 -4 -5 -1 -2 -3 -0 -2 -4 3 1 1 -10 21 21 15 -2 9 10 -48 -10 -1 11 -38 8 -30 5 -6 2 4 12 5 13 -25 18 9 -13 -11 -2 7 6
-3 -5 -1 -6 -5 -3 -0 -6 -3 -0 -7 3 8 -17 -12 3 2 -13 -7 18 15 9 19 -9 15 -6 -9 6 3 8 5 6 10 15 13 -15 6 -0 -29 -42 -0 -12 14 1 -2
-2 -4 -3 -2 -7 -3 -6 -2 -7 -4 -5 4 -26 -0 -0 -22 -12 -5 -15 -2 7 27 -1 16 -4 11 20 11 17 20 16 5 5 14 -11 6 11 -35 -10 -11 9 -14 -2 -7 6
-4 -2 -2 -2 -4 -6 -4 -4 -8 5 -2 2 -8 -6 -9 -7 -5 0 -12 -14 20 3 14 -9 2 9 8 7 -30 -5 4 -10 -6 -2 -12 15 -3 -22 9 4 17 22 -11 8 2
-4 -3 -5 -3 -4 -2 -7 -7 2 2 6 -6 -8 -6 -14 -5 -15 -9 -5 2 0 5 2 23 -14 6 -35 3 10 -23 11 -0 5 3 9 -5 -4 -21 -8 20 17 -7 2 5 3
-7 -3 -7 -5 -4 2 2 -1 6 6 -2 -6 -1 -4 1 -9 -12 -2 -10 13 -9 10 9 12 -4 -26 1 41 11 -11 -2 19 8 -0 -1 -3 -4 -24 -18 -13 23 5 -5 -3 14
-4 -2 -5 0 6 8 9 6 9 5 -0 -2 -7 -1 8 14 -7 -9 -5 -17 0 -3 8 9 14 -13 49 -11 -21 20 8 22 6 4 -5 -2 -27 -5 -16 -6 6 11 -6 -13 -10
-7 -5 0 -6 -2 2 -0 0 7 -3 -6 -6 -0 10 8 2 -3 11 1 -17 -8 -10 -20 -0 5 -8 -39 25 39 15 -3 2 2 -3 -2 2 -39 16 1 -1 1 18 2 -15 -9
-6 -11 6 -4 -1 1 4 1 -2 -9 -9 -6 5 -0 7 4 -0 -3 -7 -3 8 -9 -9 -8 6 -4 -1 12 2 -10 7 6 12 6 -15 5 -45 10 2 16 12 18 15 -8 -10
-7 -4 -9 -2 8 2 -5 2 -5 2 -1 9 1 -10 7 1 3 -6 0 -7 -6 2 2 -3 -1 3 -0 -2 17 14 9 14 10 8 -12 -27 -3 -21 -8 -10 -3 -6 -8 22 -5
-5 -5 3 -10 5 3 5 4 -2 -5 -1 3 1 13 6 -5 -4 -0 6 9 2 -5 -3 5 -7 4 -4 -9 -1 -2 12 1 5 -10 -5 -17 -20 -15 -5 5 11 14 3 8 -8
2 -2 -4 2 1 -2 2 6 1 -7 4 -3 6 -0 6 2 -2 -15 7 13 -2 -13 -11 4 -5 1 -15 -3 1 2 -0 4 4 3 4 7 -28 13 8 13 8 -2 -0 -1 -2
-3 0 -0 1 1 1 1 2 -2 -1 4 4 16 -1 -3 -2 4 11 -1 4 10 -3 5 -7 2 1 -8 8 6 6 14 -0 -5 24 5 -1 -41 7 18 22 5 18 5 4 7
Height
3154 3152 3150 3148 3146 3144 3141 3139 3137 3135 3134 3134 3133 3132 3132 3131 3131 3131 3133 3138 3137 3138 3141 3144 3147 3150 3153 3156 3158 3157 3157 3155 3161 3159 3155 3159 3158 3162 3166 3165 3164 3166 3167 3169 3168
3152 3150 3148 3145 3143 3141 3139 3136 3134 3132 3130 3129 3129 3128 3128 3128 3128 3129 3129 3129 3132 3134 3138 3142 3145 3148 3150 3154 3156 3154 3154 3153 3157 3160 3163 3155 3157 3161 3164 3163 3164 3165 3166 3168 3169
3150 3147 3144 3142 3139 3137 3134 3133 3131 3129 3127 3126 3125 3124 3124 3124 3126 3125 3126 3127 3129 3131 3135 3139 3142 3145 3148 3151 3153 3151 3151 3154 3156 3160 3162 3163 3160 3161 3163 3163 3166 3164 3165 3167 3169
3147 3144 3141 3138 3135 3133 3130 3128 3126 3124 3122 3121 3120 3119 3119 3121 3125 3123 3122 3124 3126 3129 3131 3134 3137 3140 3144 3146 3150 3150 3149 3153 3155 3158 3161 3161 3159 3159 3162 3163 3164 3167 3167 3169 3170
3146 3143 3139 3136 3133 3129 3126 3123 3120 3118 3116 3116 3116 3114 3115 3117 3121 3120 3121 3122 3123 3125 3128 3131 3133 3138 3141 3146 3149 3147 3147 3149 3155 3158 3160 3160 3162 3163 3160 3162 3164 3167 3169 3170 3172
3145 3141 3138 3134 3130 3126 3123 3119 3115 3112 3110 3110 3111 3110 3108 3114 3116 3114 3117 3118 3120 3123 3125 3127 3131 3137 3141 3144 3146 3147 3146 3148 3156 3158 3159 3159 3161 3162 3162 3163 3164 3166 3169 3171 3173
3142 3139 3135 3131 3127 3123 3119 3115 3111 3108 3104 3103 3103 3103 3103 3113 3109 3109 3113 3115 3116 3120 3122 3126 3131 3133 3138 3141 3146 3146 3145 3146 3150 3155 3158 3159 3160 3160 3161 3162 3164 3164 3167 3170 3173
3141 3136 3132 3129 3124 3120 3116 3111 3107 3103 3100 3097 3095 3096 3097 3104 3104 3106 3109 3110 3112 3115 3120 3125 3128 3130 3133 3136 3139 3142 3144 3143 3145 3149 3155 3157 3158 3159 3162 3162 3163 3164 3166 3170 3172
3139 3134 3129 3125 3121 3117 3113 3109 3104 3100 3097 3093 3091 3090 3092 3094 3098 3097 3100 3106 3109 3111 3116 3120 3123 3124 3130 3131 3134 3135 3135 3139 3142 3143 3150 3153 3154 3156 3159 3164 3162 3161 3163 3168 3171
3137 3132 3126 3122 3117 3113 3109 3106 3101 3098 3096 3088 3084 3086 3087 3090 3089 3089 3091 3099 3102 3105 3108 3111 3113 3115 3120 3122 3118 3126 3132 3136 3137 3139 3145 3148 3149 3150 3153 3157 3160 3160 3162 3165 3167
3133 3129 3124 3118 3113 3108 3106 3101 3098 3092 3095 3086 3082 3074 3078 3080 3078 3085 3087 3093 3097 3098 3098 3101 3102 3097 3101 3112 3119 3126 3130 3132 3133 3135 3141 3143 3141 3144 3149 3154 3155 3158 3158 3161 3164
3128 3124 3120 3114 3109 3104 3100 3095 3091 3086 3082 3085 3079 3071 3069 3068 3071 3081 3082 3085 3087 3087 3094 3098 3087 3095 3105 3112 3116 3120 3125 3127 3130 3130 3136 3139 3136 3136 3142 3145 3147 3151 3155 3159 3163
3123 3118 3114 3110 3105 3100 3096 3093 3090 3087 3084 3081 3076 3072 3067 3066 3065 3079 3081 3081 3082 3083 3085 3085 3085 3096 3101 3106 3110 3113 3117 3122 3126 3127 3130 3136 3137 3139 3144 3147 3149 3152 3153 3154 3156
3119 3114 3108 3106 3101 3095 3092 3089 3085 3082 3078 3077 3074 3070 3070 3065 3063 3067 3074 3080 3078 3078 3084 3082 3088 3091 3094 3097 3104 3106 3111 3118 3123 3126 3126 3131 3134 3134 3137 3139 3145 3147 3149 3150 3153
3114 3108 3105 3097 3094 3090 3088 3084 3081 3078 3078 3073 3069 3068 3069 3070 3067 3061 3062 3063 3065 3072 3077 3064 3075 3082 3086 3085 3097 3096 3110 3114 3118 3122 3124 3120 3126 3121 3127 3129 3134 3140 3142 3146 3150
3109 3103 3100 3093 3089 3086 3082 3079 3077 3078 3072 3071 3067 3062 3062 3062 3063 3057 3057 3056 3059 3065 3064 3067 3075 3078 3076 3085 3092 3101 3108 3112 3114 3117 3116 3108 3119 3115 3115 3118 3124 3132 3135 3142 3145
3104 3099 3095 3089 3088 3083 3079 3076 3076 3075 3075 3071 3062 3059 3062 3058 3056 3056 3055 3055 3058 3059 3054 3062 3061 3069 3075 3081 3088 3096 3101 3106 3108 3104 3104 3103 3109 3107 3109 3113 3117 3120 3128 3133 3139
3100 3094 3091 3087 3083 3080 3078 3075 3074 3077 3073 3070 3066 3065 3064 3060 3057 3052 3054 3051 3045 3044 3049 3053 3058 3057 3064 3071 3079 3084 3091 3091 3100 3099 3099 3098 3093 3096 3105 3108 3112 3115 3120 3125 3132
3097 3091 3087 3083 3081 3078 3077 3075 3076 3074 3072 3068 3065 3064 3062 3061 3059 3052 3051 3055 3051 3047 3047 3044 3038 3047 3055 3065 3073 3078 3077 3089 3092 3093 3095 3089 3091 3096 3098 3103 3108 3110 3118 3121 3126
3093 3086 3082 3079 3078 3077 3076 3074 3074 3072 3068 3066 3065 3064 3061 3057 3055 3053 3049 3050 3046 3046 3047 3041 3037 3036 3045 3060 3063 3061 3074 3078 3080 3087 3091 3081 3081 3082 3089 3092 3100 3105 3110 3115 3121
3090 3084 3080 3077 3076 3074 3072 3071 3069 3067 3065 3064 3061 3060 3058 3056 3052 3051 3049 3045 3044 3039 3042 3038 3036 3029 3039 3042 3045 3056 3061 3068 3078 3080 3082 3084 3070 3078 3083 3088 3093 3098 3103 3109 3113
3086 3082 3078 3072 3072 3070 3067 3065 3064 3060 3060 3060 3058 3056 3055 3052 3050 3048 3047 3044 3041 3037 3035 3034 3032 3026 3026 3033 3044 3052 3056 3063 3065 3070 3075 3075 3066 3072 3077 3084 3088 3090 3094 3101 3106
3079 3079 3074 3066 3065 3063 3062 3062 3060 3057 3056 3054 3053 3052 3051 3048 3047 3044 3041 3040 3038 3034 3035 3034 3032 3026 3021 3029 3036 3040 3047 3052 3058 3066 3066 3074 3061 3064 3068 3073 3074 3074 3080 3090 3100
3077 3071 3068 3065 3062 3059 3056 3057 3055 3055 3052 3051 3049 3047 3046 3044 3043 3039 3036 3035 3033 3034 3032 3035 3028 3026 3021 3023 3032 3034 3037 3046 3051 3055 3059 3060 3060 3063 3064 3062 3057 3062 3072 3082 3093
3074 3070 3065 3060 3057 3055 3053 3052 3050 3049 3048 3047 3045 3043 3041 3037 3035 3033 3033 3031 3027 3026 3027 3030 3021 3022 3017 3015 3022 3027 3034 3038 3042 3048 3051 3057 3060 3060 3064 3061 3057 3063 3070 3078 3088
3071 3066 3061 3058 3053 3051 3049 3048 3046 3045 3044 3042 3040 3036 3035 3033 3032 3026 3027 3026 3025 3023 3024 3025 3018 3016 3009 3013 3017 3023 3027 3031 3037 3043 3050 3054 3059 3062 3066 3061 3059 3064 3069 3075 3081
3067 3062 3057 3053 3049 3047 3046 3043 3040 3040 3038 3036 3034 3030 3028 3026 3024 3020 3021 3020 3019 3019 3019 3020 3019 3015 3009 3011 3017 3024 3026 3026 3033 3042 3048 3052 3057 3060 3064 3062 3061 3065 3068 3072 3077